[[{"header":{"parameterUnit":"m.s-1","parameterCategory":1,"la1":30.2991,"la2":30.254,"lo1":-89.0895,"lo2":-89.0444,"dy":0.0017,"dx":0.0017,"nx":28,"ny":28,"refTime":"2024-08-12T21:00:00:Z","depth":0,"parameterNumber":2,"parameterNumberName":"U-component_of_WINDS"},"data":[0,0,0,0,0,0,0,0,0,0,0,0,0,0,0,0,0,0,0,0,0,0,0,0,0,0,0,0,0,0,0,0,0,0,0,0,0,0,0,0,0,0,0,0,0,0,0,0,0,0,0,0,0,0,0,0,0,0,0.4492,0.4493,0,0.4596,0.4598,0.4599,0.4636,0.4636,0.4635,0.4635,0.4746,0.4749,0.4753,0,0,0,0,0,0,0,0,0,0,0,0,0,0.4326,0.4329,0.4492,0.4493,0.4494,0.4596,0.4598,0.4599,0.4636,0.4636,0.4635,0.4635,0.4745,0.4749,0.4753,0,0,0,0,0,0,0,0,0,0,0,0,0,0.4411,0.433,0.4491,0.4525,0.4529,0.4596,0.4598,0.46,0.4636,0.4636,0.4635,0.4635,0.4744,0.4749,0.4754,0.4796,0,0,0.4769,0.4771,0,0,0,0,0,0,0,0,0.4406,0.4417,0.4519,0.4523,0.4527,0.4603,0.458,0.4666,0.4636,0.4596,0.4635,0.4634,0.4699,0.4708,0.4729,0.4801,0.4806,0.4769,0.4772,0.4774,0.4776,0,0,0,0,0,0,0,0.44,0.4413,0.4533,0.452,0.4525,0.4536,0.4547,0.4597,0.465,0.4599,0.4602,0.4614,0.4701,0.4724,0.4732,0.4808,0.4769,0.4774,0.4777,0.4779,0.4919,0.492,0,0,0,0,0,0,0.4389,0.4408,0.453,0.4536,0.4464,0.4539,0.4552,0.4579,0.4649,0.4659,0.4614,0.4615,0.4716,0.4726,0.4736,0.479,0.4774,0.4779,0.4782,0.4919,0.4919,0.492,0,0,0,0,0,0,0.4385,0.4399,0.4526,0.4473,0.449,0.4542,0.4573,0.4581,0.4604,0.466,0.467,0.4627,0.4716,0.4729,0.478,0.4794,0.4781,0.4786,0.4918,0.4919,0.492,0.4898,0,0,0,0,0,0,0.438,0.4398,0.4414,0.4473,0.4492,0.4568,0.4574,0.4584,0.4612,0.4614,0.4675,0.4685,0.4716,0.4773,0.4785,0.4801,0.479,0.4917,0.4918,0.492,0.4897,0.4898,0.4898,0,0,0,0,0,0.4374,0.4404,0.4414,0.4429,0.4514,0.4568,0.458,0.4614,0.4613,0.463,0.4666,0.4683,0.479,0.4778,0.4792,0.4809,0.4916,0.4918,0.4919,0.4897,0.4898,0.4898,0,0,0,0,0,0,0.4347,0.4413,0.4425,0.4475,0.4516,0.4574,0.4597,0.4614,0.4656,0.4657,0.4699,0.4712,0.476,0.479,0.4775,0.4853,0.4854,0.4859,0.4832,0.4833,0.4834,0.4826,0.4794,0,0,0,0,0,0.4347,0.4385,0.4441,0.448,0.4499,0.4544,0.457,0.4592,0.4636,0.4654,0.4694,0.4737,0.4781,0.4809,0.4852,0.4901,0.4915,0.492,0.4921,0.4921,0.4924,0.4952,0.4955,0.4926,0.4926,0.4926,0,0,0.4347,0.4388,0.441,0.4475,0.4509,0.4548,0.4559,0.46,0.4629,0.4661,0.4712,0.4742,0.4793,0.4843,0.4868,0.487,0.4935,0.4923,0.4922,0.4926,0.4954,0.4957,0.4959,0.4927,0.4927,0.4927,0,0,0.4368,0.4402,0.4438,0.4471,0.4522,0.4552,0.456,0.4616,0.4637,0.4688,0.4712,0.4748,0.4822,0.4857,0.4885,0.4916,0.4933,0.4929,0.4932,0.4958,0.496,0.4962,0.4973,0.4977,0.4932,0.4932,0.4932,0,0.4362,0.4421,0.4455,0.4494,0.4522,0.455,0.4587,0.4618,0.4681,0.47,0.4701,0.4793,0.483,0.4888,0.4895,0.4917,0.4928,0.4923,0.4957,0.4959,0.4962,0.4973,0.4977,0.4932,0.4932,0.4932,0.4932,0,0.4411,0.4451,0.4474,0.4532,0.4563,0.4601,0.4641,0.4668,0.4687,0.4717,0.4768,0.4812,0.4864,0.488,0.49,0.4941,0.494,0.4948,0.495,0.4963,0.4974,0.4979,0.493,0.4931,0.4931,0.4931,0,0,0.4419,0.4493,0.4501,0.4527,0.4585,0.4617,0.4656,0.4705,0.4727,0.4769,0.4803,0.4864,0.4871,0.4902,0.4926,0.4949,0.4971,0.4955,0.4957,0.4956,0.5018,0.5011,0.5016,0.4982,0.4983,0.4984,0.5013,0,0.4446,0.4516,0.4547,0.4603,0.464,0.4667,0.4701,0.474,0.4768,0.4805,0.4836,0.4878,0.4885,0.4904,0.4928,0.4963,0.4984,0.4961,0.5014,0.5016,0.5001,0.5021,0.5015,0.5041,0.5018,0.5019,0.5019,0,0.4489,0.4528,0.4588,0.4639,0.4656,0.4686,0.4733,0.4767,0.4811,0.483,0.4864,0.4887,0.4929,0.4927,0.4985,0.4969,0.4993,0.5013,0.5015,0.5022,0.5019,0.5029,0.505,0.5054,0.5026,0.5026,0.5025,0,0.4488,0.4557,0.46,0.4622,0.4683,0.4703,0.473,0.4774,0.4801,0.4842,0.486,0.4906,0.4932,0.4967,0.5002,0.4997,0.5057,0.5058,0.5074,0.5073,0.5086,0.5085,0.5112,0.5101,0.5101,0.5101,0.5101,0,0.4515,0.4551,0.4601,0.4628,0.4668,0.4703,0.4742,0.477,0.4809,0.4842,0.4869,0.49,0.4943,0.498,0.5007,0.5052,0.5063,0.508,0.5087,0.5078,0.5075,0.5094,0.5093,0.5102,0.5102,0.5102,0.5101,0,0.4522,0.4557,0.4606,0.4659,0.4673,0.47,0.4746,0.4774,0.4802,0.4844,0.4856,0.4902,0.4946,0.4984,0.5043,0.5061,0.5107,0.5115,0.5091,0.5095,0.5109,0.5107,0.5149,0.5156,0.514,0.514,0.514,0,0.4537,0.4565,0.462,0.4643,0.4669,0.4707,0.4734,0.477,0.4797,0.4849,0.487,0.4916,0.4954,0.5024,0.5063,0.5108,0.5117,0.5129,0.5124,0.5114,0.5117,0.5115,0.5118,0.5129,0.5129,0.5129,0.5129,0,0.4561,0.4576,0.4614,0.4657,0.4689,0.4725,0.4762,0.478,0.4822,0.4852,0.4896,0.4926,0.4985,0.503,0.5078,0.5107,0.5125,0.513,0.5136,0.5127,0.5112,0.512,0.5092,0.5129,0.5129,0.5129,0.5129,0.5129,0.4572,0.4597,0.464,0.4681,0.4712,0.4745,0.4773,0.4804,0.4842,0.4891,0.491,0.4956,0.4999,0.5066,0.5094,0.513,0.5133,0.5142,0.5145,0.5146,0.5144,0.5105,0.514,0.514,0.514,0.514,0.514,0,0.4597,0.4625,0.4662,0.4712,0.4744,0.4757,0.4798,0.4824,0.4863,0.4901,0.4938,0.4989,0.5032,0.5073,0.5119,0.514,0.515,0.5151,0.515,0.5156,0.514,0.513,0.5142,0.5142,0.5142,0.5142,0.5142,0.5142,0.4614,0.4656,0.4677,0.4735,0.4763,0.4807,0.4829,0.486,0.489,0.4945,0.4981,0.5007,0.5047,0.5095,0.5135,0.5146,0.5162,0.5161,0.5174,0.5158,0.5157,0.5157,0.5148,0.5164,0.5164,0.5188,0.5188,0.5188]},{"header":{"parameterUnit":"m.s-1","parameterCategory":1,"la1":30.2991,"la2":30.254,"lo1":-89.0895,"lo2":-89.0444,"dy":0.0017,"dx":0.0017,"nx":28,"ny":28,"refTime":"2024-08-12T21:00:00:Z","depth":0,"parameterNumber":3,"parameterNumberName":"V-component_of_WINDS"},"data":[0,0,0,0,0,0,0,0,0,0,0,0,0,0,0,0,0,0,0,0,0,0,0,0,0,0,0,0,0,0,0,0,0,0,0,0,0,0,0,0,0,0,0,0,0,0,0,0,0,0,0,0,0,0,0,0,0,0,3.8922,3.8922,0,3.8874,3.8873,3.8872,3.8837,3.8837,3.8837,3.8837,3.8785,3.8784,3.8783,0,0,0,0,0,0,0,0,0,0,0,0,0,3.8981,3.898,3.8922,3.8922,3.8921,3.8874,3.8873,3.8872,3.8838,3.8837,3.8837,3.8837,3.8785,3.8784,3.8783,0,0,0,0,0,0,0,0,0,0,0,0,0,3.8946,3.898,3.8923,3.8898,3.8895,3.8874,3.8873,3.8872,3.8838,3.8837,3.8837,3.8836,3.8786,3.8784,3.8783,3.8781,0,0,3.8778,3.8777,0,0,0,0,0,0,0,0,3.8948,3.8944,3.8902,3.89,3.8897,3.8861,3.8875,3.8841,3.8838,3.886,3.8837,3.8836,3.8811,3.8807,3.8799,3.8778,3.8776,3.8777,3.8776,3.8776,3.8775,0,0,0,0,0,0,0,3.8951,3.8946,3.8903,3.8902,3.8898,3.8888,3.8883,3.8868,3.8838,3.8858,3.8855,3.885,3.8809,3.88,3.8797,3.8775,3.8777,3.8776,3.8775,3.8774,3.8746,3.8747,0,0,0,0,0,0,3.8957,3.8948,3.8905,3.8902,3.8922,3.8888,3.8881,3.8873,3.8838,3.8832,3.885,3.8848,3.8803,3.8799,3.8795,3.8788,3.8776,3.8774,3.8773,3.8746,3.8746,3.8747,0,0,0,0,0,0,3.8959,3.8954,3.8907,3.8924,3.8917,3.8887,3.8878,3.8872,3.8864,3.8832,3.8827,3.8847,3.8803,3.8798,3.8784,3.8786,3.8773,3.8772,3.8746,3.8746,3.8747,3.8775,0,0,0,0,0,0,3.8961,3.8955,3.8955,3.8924,3.8917,3.8897,3.8878,3.8872,3.8861,3.8858,3.8828,3.8823,3.8802,3.8786,3.8782,3.8783,3.8771,3.8745,3.8746,3.8746,3.8774,3.8777,3.8779,0,0,0,0,0,3.8963,3.8965,3.8955,3.895,3.8916,3.8898,3.8893,3.887,3.8861,3.886,3.884,3.8824,3.8786,3.8785,3.878,3.8781,3.8745,3.8746,3.8746,3.8773,3.8776,3.8779,0,0,0,0,0,0,3.8997,3.8961,3.8949,3.8942,3.8923,3.8892,3.889,3.8875,3.8857,3.8855,3.8826,3.882,3.8808,3.8793,3.8793,3.8775,3.8763,3.8763,3.8785,3.8788,3.8791,3.8794,3.8769,0,0,0,0,0,3.9004,3.8993,3.8961,3.8958,3.8949,3.8921,3.8912,3.8896,3.8875,3.8866,3.8845,3.8824,3.8807,3.8797,3.878,3.8771,3.8763,3.8769,3.8771,3.8774,3.8773,3.8764,3.8766,3.8749,3.8749,3.8749,0,0,3.9018,3.8997,3.8991,3.8964,3.8948,3.8935,3.8915,3.8903,3.8892,3.8864,3.8849,3.8833,3.8807,3.8795,3.8789,3.8782,3.8776,3.8774,3.8776,3.8775,3.8765,3.8767,3.8768,3.8749,3.8749,3.8749,0,0,3.9036,3.902,3.9014,3.8997,3.8972,3.8953,3.8951,3.8921,3.8909,3.8893,3.8871,3.8857,3.883,3.8812,3.8799,3.8806,3.879,3.8802,3.8814,3.8806,3.8807,3.8808,3.8808,3.8809,3.8802,3.8802,3.8802,0,3.9056,3.9037,3.9013,3.9001,3.8989,3.8962,3.8954,3.8939,3.8909,3.89,3.8893,3.8856,3.8837,3.8819,3.882,3.8812,3.8807,3.8805,3.8809,3.881,3.881,3.881,3.8811,3.8803,3.8803,3.8803,3.8803,0,3.9062,3.9049,3.9047,3.9018,3.9005,3.8996,3.8968,3.8957,3.8941,3.8922,3.8905,3.8881,3.8857,3.8852,3.8836,3.883,3.8826,3.8815,3.8802,3.8814,3.8813,3.8813,3.8805,3.8805,3.8804,3.8804,0,0,3.9102,3.9058,3.9057,3.9042,3.9011,3.9,3.8987,3.8964,3.8955,3.8934,3.8922,3.8897,3.8885,3.8871,3.8852,3.8845,3.8849,3.8834,3.8832,3.8836,3.8837,3.8845,3.8846,3.8838,3.8838,3.8838,3.8839,0,3.9114,3.9092,3.9067,3.9053,3.9039,3.9012,3.9,3.8979,3.896,3.8944,3.8922,3.8905,3.8892,3.8882,3.8874,3.885,3.8849,3.885,3.8824,3.8823,3.883,3.8846,3.8856,3.8858,3.8838,3.8838,3.8838,0,3.9125,3.9105,3.9089,3.9056,3.9049,3.904,3.9015,3.9001,3.8974,3.8961,3.8943,3.8923,3.8906,3.8896,3.8871,3.8872,3.886,3.8846,3.8846,3.8842,3.8831,3.8841,3.8858,3.8858,3.8838,3.8838,3.8838,0,3.9153,3.9122,3.9108,3.9096,3.9058,3.9052,3.9035,3.9009,3.8995,3.8973,3.8963,3.8939,3.8925,3.8906,3.8879,3.8875,3.8856,3.8844,3.8843,3.8843,3.884,3.884,3.8854,3.8834,3.8834,3.8834,3.8834,0,3.9168,3.9158,3.9119,3.911,3.9098,3.907,3.9058,3.9039,3.9015,3.9,3.8975,3.8961,3.8927,3.8909,3.8887,3.8868,3.8863,3.885,3.8844,3.8852,3.8853,3.8843,3.8841,3.8834,3.8834,3.8834,3.8834,0,3.9196,3.917,3.9152,3.9117,3.9108,3.91,3.9069,3.9058,3.9037,3.9018,3.9012,3.8979,3.8955,3.8927,3.8894,3.888,3.8862,3.8854,3.8871,3.8868,3.8867,3.8867,3.8874,3.8872,3.8855,3.8855,3.8855,0,3.9207,3.9199,3.9163,3.9151,3.9136,3.9118,3.9103,3.9074,3.906,3.9027,3.902,3.8995,3.8973,3.8936,3.8908,3.8882,3.8873,3.8877,3.8869,3.8875,3.887,3.8871,3.8869,3.8879,3.8879,3.8879,3.888,0,3.9228,3.9215,3.9196,3.9171,3.9155,3.9134,3.9112,3.9104,3.9069,3.9054,3.903,3.9013,3.8979,3.8953,3.8924,3.8905,3.8885,3.8882,3.888,3.8887,3.8897,3.889,3.8876,3.8882,3.8882,3.8882,3.8882,3.8882,3.9247,3.9237,3.921,3.9188,3.9168,3.9148,3.9135,3.9112,3.9092,3.9062,3.9045,3.9021,3.8992,3.895,3.8931,3.891,3.8903,3.8901,3.89,3.89,3.8901,3.8901,3.8905,3.8905,3.8905,3.8904,3.8904,0,3.9264,3.9245,3.9226,3.9195,3.9178,3.9162,3.9136,3.9122,3.9101,3.9076,3.9055,3.9025,3.9,3.8968,3.894,3.8929,3.892,3.8923,3.8923,3.8918,3.891,3.8914,3.8931,3.8931,3.8931,3.8931,3.8931,3.8931,3.9272,3.9254,3.9237,3.9209,3.9189,3.9165,3.9151,3.9131,3.9111,3.908,3.9058,3.9038,3.901,3.8978,3.8953,3.8944,3.8934,3.894,3.8928,3.8921,3.8919,3.8917,3.892,3.8938,3.8938,3.8938,3.8938,3.8938]}]]